"1994/01/01", 6.2, 6.6, 5.6
"1994/01/02", 6.0, 6.5, 5.6
"1994/01/03", 5.9, 6.3, 5.4
"1994/01/04", 6.0, 7.2, 5.3
"1994/01/05", 5.8, 6.3, 5.0
"1994/01/06", 5.6, 6.2, 5.3
"1994/01/07", 5.3, 6.3, 4.8
"1994/01/08", 4.8, 5.0, 4.5
"1994/01/09", 5.0, 5.9, 3.5
"1994/01/10", 5.2, 5.6, 4.8
"1994/01/11", 5.4, 5.6, 5.3
"1994/01/12", 5.5, 5.9, 4.9
"1994/01/13", 5.7, 6.0, 5.5
"1994/01/14", 5.4, 5.8, 5.2
"1994/01/15", 5.1, 5.7, 4.4
"1994/01/16", 5.3, 6.2, 4.3
"1994/01/17", 5.5, 6.8, 4.9
"1994/01/18", 6.1, 7.1, 5.7
"1994/01/19", 5.9, 6.6, 5.4
"1994/01/20", 5.3, 5.8, 4.6
"1994/01/21", 5.1, 5.3, 4.8
"1994/01/22", 4.9, 5.8, 3.7
"1994/01/23", 4.8, 5.8, 4.3
"1994/01/24", 4.5, 4.9, 3.5
"1994/01/25", 4.5, 5.3, 3.7
"1994/01/26", 5.1, 6.1, 4.0
"1994/01/27", 5.0, 5.8, 4.4
"1994/01/28", 4.8, 5.0, 4.4
"1994/01/29", 4.1, 4.4, 3.1
"1994/01/30", 3.7, 4.3, 2.5
"1994/01/31", 3.8, 4.7, 3.1
"1994/02/01", 3.9, 4.0, 3.7
"1994/02/02", 3.7, 4.4, 2.9
"1994/02/03", 3.1, 3.8, 1.6
"1994/02/04", 3.3, 4.4, 2.5
"1994/02/05", 3.5, 4.5, 2.4
"1994/02/06", 4.1, 5.2, 3.3
"1994/02/07", 4.6, 6.1, 3.8
"1994/02/08", 4.7, 5.3, 4.2
"1994/02/09", 5.3, 6.9, 4.8
"1994/02/10", 5.2, 6.2, 4.5
"1994/02/11", 4.7, 5.5, 3.9
"1994/02/12", 3.9, 4.6, 2.5
"1994/02/13", 3.5, 4.6, 2.0
"1994/02/14", 3.6, 4.8, 2.8
"1994/02/15", 3.5, 4.2, 2.5
"1994/02/16", 4.5, 5.8, 3.8
"1994/02/17"," *"," *"," *"
"1994/02/18"," *"," *"," *"
"1994/02/19", 5.6, 7.4, 4.8
"1994/02/20", 6.3, 8.9, 5.1
"1994/02/21", 6.1, 7.2, 5.7
"1994/02/22", 5.5, 6.5, 4.7
"1994/02/23", 5.0, 6.0, 4.0
"1994/02/24", 4.7, 5.8, 3.5
"1994/02/25", 5.2, 6.3, 4.3
"1994/02/26", 5.5, 7.0, 4.4
"1994/02/27", 6.2, 7.8, 5.3
"1994/02/28", 6.8, 9.1, 5.4
"1994/03/01", 7.0, 8.6, 5.7
"1994/03/02", 6.5, 7.1, 6.1
"1994/03/03", 6.4, 7.0, 5.9
"1994/03/04", 6.5, 7.5, 6.2
"1994/03/05", 6.7, 7.6, 6.3
"1994/03/06", 6.8, 7.7, 6.0
"1994/03/07", 6.4, 6.7, 6.3
"1994/03/08", 6.7, 7.2, 6.3
"1994/03/09", 7.3, 8.3, 6.5
"1994/03/10", 6.7, 6.8, 6.3
"1994/03/11", 6.9, 8.0, 6.3
"1994/03/12", 7.1, 7.9, 6.4
"1994/03/13", 7.0, 7.2, 6.8
"1994/03/14", 7.0, 7.3, 6.8
"1994/03/15", 7.3, 8.3, 6.5
"1994/03/16", 7.5, 8.6, 6.7
"1994/03/17", 7.9, 8.7, 7.0
"1994/03/18", 7.9, 8.6, 7.4
"1994/03/19", 8.4, 9.5, 7.5
"1994/03/20", 8.1, 8.6, 7.8
"1994/03/21", 8.5, 9.6, 7.4
"1994/03/22", 8.2, 8.9, 7.6
"1994/03/23", 8.1, 8.4, 7.8
"1994/03/24", 8.8,10.0, 8.1
"1994/03/25", 9.5,10.8, 8.5
"1994/03/26", 9.4,10.4, 8.6
"1994/03/27", 9.9,11.9, 8.8
"1994/03/28",10.0,10.9, 9.1
"1994/03/29",10.7,12.4, 9.7
"1994/03/30",10.7,12.5,10.0
"1994/03/31",11.4,13.4, 9.9
"1994/04/01",12.6,14.6,11.3
"1994/04/02",12.9,13.6,12.3
"1994/04/03",12.1,13.4,11.1
"1994/04/04",12.5,13.7,11.6
"1994/04/05",13.9,17.6,11.9
"1994/04/06",14.0,16.5,12.0
"1994/04/07",15.0,17.0,13.6
"1994/04/08"," *"," *"," *"
"1994/04/09",14.0,15.4,12.9
"1994/04/10",13.9,16.5,12.4
"1994/04/11",13.4,14.1,12.9
"1994/04/12",14.1,15.4,13.0
"1994/04/13"," *"," *"," *"
"1994/04/14",13.9,15.3,13.1
"1994/04/15",14.8,17.3,13.4
"1994/04/16",15.7,17.5,14.4
"1994/04/17",15.7,16.7,15.0
"1994/04/18",15.4,16.0,15.1
"1994/04/19",17.0,20.4,15.1
"1994/04/20",15.7,17.3,15.2
"1994/04/21"," *"," *"," *"
"1994/04/22",16.6,17.8,15.6
"1994/04/23",16.5,17.3,15.9
"1994/04/24",16.5,16.8,16.3
"1994/04/25",17.2,18.4,16.4
"1994/04/26",17.3,18.0,16.9
"1994/04/27",17.2,18.0,16.5
"1994/04/28",17.1,17.3,16.9
"1994/04/29"," *"," *"," *"
"1994/04/30",17.8,19.0,17.2
"1994/05/01",17.0,17.4,16.5
"1994/05/02",16.3,16.5,15.9
"1994/05/03"," *"," *"," *"
"1994/05/04",16.2,16.8,15.4
"1994/05/05",17.3,18.4,16.6
"1994/05/06",17.8,19.5,16.8
"1994/05/07",18.2,19.8,17.0
"1994/05/08",18.6,19.6,17.9
"1994/05/09",18.7,20.0,18.0
"1994/05/10",18.8,19.9,17.9
"1994/05/11"," *"," *"," *"
"1994/05/12",18.8,19.2,18.0
"1994/05/13",18.8,20.1,17.8
"1994/05/14",19.3,21.8,18.4
"1994/05/15",18.9,19.0,18.6
"1994/05/16",20.3,22.5,18.9
"1994/05/17"," *"," *"," *"
"1994/05/18"," *"," *"," *"
"1994/05/19",19.3,20.0,18.8
"1994/05/20",19.2,20.0,18.8
"1994/05/21",19.7,21.1,18.1
"1994/05/22",19.8,20.9,19.2
"1994/05/23",21.1,23.7,19.1
"1994/05/24",21.2,23.0,20.1
"1994/05/25",21.6,22.8,20.5
"1994/05/26",21.5,22.1,20.8
"1994/05/27",21.4,22.5,20.7
"1994/05/28",21.4,22.0,21.0
"1994/05/29",22.1,24.5,20.9
"1994/05/30",22.7,25.5,21.5
"1994/05/31",23.0,24.3,22.0
"1994/06/01",22.3,22.8,22.0
"1994/06/02",22.6,24.0,21.8
"1994/06/03",23.4,25.2,22.0
"1994/06/04",23.2,23.7,22.7
"1994/06/05",23.9,25.5,23.0
"1994/06/06",22.5,23.4,21.9
"1994/06/07",21.6,22.0,21.4
"1994/06/08",22.1,23.1,21.3
"1994/06/09",21.8,22.0,21.5
"1994/06/10",23.3,26.8,21.5
"1994/06/11",23.4,25.4,22.5
"1994/06/12",23.2,23.6,22.6
"1994/06/13",23.6,24.3,23.1
"1994/06/14",23.7,25.7,22.9
"1994/06/15",24.2,25.6,22.8
"1994/06/16",24.5,26.5,23.5
"1994/06/17",25.2,27.5,23.5
"1994/06/18",24.7,25.4,24.2
"1994/06/19",23.0,24.5,21.1
"1994/06/20",21.0,21.4,20.7
"1994/06/21",21.5,22.5,20.5
"1994/06/22",22.1,23.6,21.1
"1994/06/23",21.9,22.4,21.5
"1994/06/24",22.9,24.0,21.7
"1994/06/25",22.4,23.5,21.9
"1994/06/26",22.2,22.8,21.6
"1994/06/27"," *"," *"," *"
"1994/06/28",23.5,25.8,22.0
"1994/06/29",22.1,22.4,21.7
"1994/06/30",22.9,24.6,22.0
"1994/07/01",22.8,23.5,22.5
"1994/07/02"," *"," *"," *"
"1994/07/03"," *"," *"," *"
"1994/07/04"," *"," *"," *"
"1994/07/05",26.3,30.0,23.8
"1994/07/06",26.2,27.6,25.3
"1994/07/07",25.5,25.8,25.3
"1994/07/08",25.9,27.1,25.1
"1994/07/09",26.0,26.5,25.6
"1994/07/10",25.8,26.5,25.4
"1994/07/11",26.4,27.9,25.4
"1994/07/12",26.8,27.3,26.3
"1994/07/13",26.9,28.0,26.3
"1994/07/14",27.2,28.5,26.0
"1994/07/15",28.5,30.9,26.5
"1994/07/16",28.9,30.5,27.4
"1994/07/17",29.2,30.9,28.0
"1994/07/18",27.7,28.8,27.0
"1994/07/19",27.5,28.0,27.1
"1994/07/20",28.3,31.0,27.1
"1994/07/21",28.7,30.9,27.4
"1994/07/22",28.8,30.1,27.7
"1994/07/23",29.2,30.9,28.0
"1994/07/24",29.4,30.8,28.5
"1994/07/25",29.9,31.0,28.9
"1994/07/26",30.0,30.7,29.3
"1994/07/27",30.3,32.0,29.4
"1994/07/28",29.8,30.3,29.4
"1994/07/29",28.9,29.3,28.4
"1994/07/30",29.3,31.1,28.1
"1994/07/31",29.4,30.2,28.7
"1994/08/01",30.6,32.3,28.9
"1994/08/02",31.0,32.7,30.0
"1994/08/03",31.3,33.1,30.1
"1994/08/04",31.6,33.0,30.5
"1994/08/05",31.3,33.1,30.6
"1994/08/06",31.0,32.3,30.0
"1994/08/07",31.7,34.0,30.2
"1994/08/08",31.7,32.9,31.0
"1994/08/09",31.3,32.0,30.8
"1994/08/10",31.0,31.9,30.4
"1994/08/11",30.8,31.5,30.2
"1994/08/12",30.7,31.3,29.9
"1994/08/13",30.7,31.5,30.0
"1994/08/14",30.3,30.8,29.7
"1994/08/15",30.5,32.2,29.5
"1994/08/16",30.9,32.8,29.6
"1994/08/17",31.0,32.6,30.0
"1994/08/18",30.9,31.9,29.9
"1994/08/19",30.4,31.5,29.6
"1994/08/20",29.6,30.3,29.1
"1994/08/21",28.1,29.1,26.9
"1994/08/22",26.9,27.4,26.6
"1994/08/23",26.9,27.5,26.6
"1994/08/24",26.9,27.5,26.4
"1994/08/25",27.3,28.7,26.4
"1994/08/26",28.3,30.1,27.0
"1994/08/27",28.2,29.0,27.6
"1994/08/28",29.3,32.5,27.7
"1994/08/29",29.6,32.0,28.3
"1994/08/30",29.6,31.6,28.5
"1994/08/31",29.3,29.8,28.9
"1994/09/01",29.7,32.0,28.6
"1994/09/02",29.0,30.0,28.1
"1994/09/03",29.1,30.0,28.4
"1994/09/04",29.1,30.6,28.0
"1994/09/05",29.2,30.8,28.0
"1994/09/06",28.8,29.3,28.2
"1994/09/07",28.8,29.9,28.2
"1994/09/08",28.8,29.7,28.1
"1994/09/09",29.1,30.6,28.2
"1994/09/10",28.6,29.1,28.1
"1994/09/11",28.8,29.4,28.3
"1994/09/12",28.0,28.5,27.4
"1994/09/13",26.8,27.6,25.8
"1994/09/14",25.2,25.7,25.0
"1994/09/15",24.8,25.0,24.5
"1994/09/16",24.9,25.7,24.5
"1994/09/17",25.0,25.3,24.8
"1994/09/18",25.0,25.5,24.6
"1994/09/19"," *"," *"," *"
"1994/09/20",26.0,27.6,24.8
"1994/09/21",25.9,26.5,25.4
"1994/09/22",25.1,25.5,24.6
"1994/09/23",24.8,25.8,24.1
"1994/09/24",24.2,24.6,23.9
"1994/09/25",24.0,24.6,23.7
"1994/09/26",23.7,24.0,23.4
"1994/09/27",23.0,23.4,22.8
"1994/09/28",22.6,22.8,22.4
"1994/09/29",22.4,22.9,21.9
"1994/09/30",23.5,24.5,22.8
"1994/10/01",23.8,24.4,23.5
"1994/10/02",23.3,23.5,23.0
"1994/10/03",23.0,23.4,22.6
"1994/10/04",22.6,22.9,22.2
"1994/10/05",22.7,23.3,22.0
"1994/10/06",23.3,24.3,22.6
"1994/10/07",23.1,24.6,22.4
"1994/10/08",22.6,22.8,22.4
"1994/10/09",22.3,22.6,22.0
"1994/10/10",22.1,22.4,21.9
"1994/10/11",21.9,22.1,21.5
"1994/10/12",21.8,22.6,21.4
"1994/10/13",22.5,23.1,21.9
"1994/10/14",22.4,23.1,22.0
"1994/10/15",22.2,22.9,21.8
"1994/10/16",22.0,22.6,21.4
"1994/10/17",21.7,22.3,21.4
"1994/10/18"," *"," *"," *"
"1994/10/19",20.9,21.3,20.3
"1994/10/20",21.0,22.3,20.6
"1994/10/21",19.5,20.6,18.9
"1994/10/22",19.1,19.4,18.6
"1994/10/23",19.3,20.3,18.7
"1994/10/24",18.5,19.1,17.9
"1994/10/25",17.6,17.9,17.4
"1994/10/26",17.3,17.5,17.1
"1994/10/27",17.3,17.7,17.0
"1994/10/28",17.5,17.7,17.3
"1994/10/29",17.7,18.2,17.6
"1994/10/30",17.6,17.9,17.5
"1994/10/31",17.5,17.8,17.1
"1994/11/01",16.7,17.1,16.4
"1994/11/02",16.6,17.3,15.9
"1994/11/03",16.3,16.6,16.0
"1994/11/04",16.6,18.0,15.3
"1994/11/05",16.3,16.7,15.7
"1994/11/06",15.9,16.2,15.6
"1994/11/07",15.9,16.3,15.4
"1994/11/08",14.7,15.4,14.1
"1994/11/09",15.0,16.5,13.4
"1994/11/10",16.1,17.9,14.6
"1994/11/11",16.2,17.7,15.1
"1994/11/12",15.9,16.9,15.1
"1994/11/13",15.9,17.6,15.1
"1994/11/14",14.8,15.4,14.3
"1994/11/15",13.8,14.2,13.0
"1994/11/16",13.0,14.1,12.3
"1994/11/17",12.8,13.4,11.8
"1994/11/18",13.4,14.2,12.8
"1994/11/19",14.2,15.4,13.4
"1994/11/20",13.9,14.1,13.7
"1994/11/21",13.9,14.6,13.6
"1994/11/22",13.4,13.7,13.1
"1994/11/23",12.8,13.1,12.3
"1994/11/24",12.1,12.4,10.6
"1994/11/25",11.9,12.4,11.4
"1994/11/26",11.7,12.1,11.3
"1994/11/27",11.4,12.0,10.4
"1994/11/28",11.2,11.7,10.3
"1994/11/29",11.5,12.6,10.6
"1994/11/30",11.5,12.1,11.1
"1994/12/01"," *"," *"," *"
"1994/12/02"," *"," *"," *"
"1994/12/03",11.6,12.6,11.2
"1994/12/04",11.3,11.9,10.7
"1994/12/05",10.8,11.3,10.1
"1994/12/06", 9.9,10.6, 8.6
"1994/12/07", 9.8,10.3, 8.9
"1994/12/08",10.0,10.8, 9.2
"1994/12/09", 9.9,10.2, 9.6
"1994/12/10", 9.2, 9.9, 8.5
"1994/12/11", 8.5, 9.0, 8.1
"1994/12/12", 8.7, 9.4, 8.1
"1994/12/13", 9.3, 9.9, 9.1
"1994/12/14", 9.1, 9.6, 8.4
"1994/12/15", 8.9, 9.4, 8.4
"1994/12/16", 7.9, 8.7, 6.3
"1994/12/17", 7.1, 7.7, 6.6
"1994/12/18", 7.0, 8.1, 6.1
"1994/12/19", 6.4, 6.8, 5.1
"1994/12/20", 5.6, 6.2, 4.8
"1994/12/21", 6.1, 7.2, 5.4
"1994/12/22", 6.3, 7.2, 5.4
"1994/12/23", 6.9, 8.4, 5.7
"1994/12/24", 6.6, 7.6, 5.8
"1994/12/25", 6.5, 7.2, 5.9
"1994/12/26", 6.4, 6.7, 6.2
"1994/12/27", 6.5, 6.9, 6.2
"1994/12/28", 6.9, 7.2, 6.7
"1994/12/29", 6.9, 7.3, 6.4
"1994/12/30", 6.7, 7.2, 6.3
"1994/12/31", 6.4, 6.6, 6.2
